Location: North Evanston
(42.0634°N, 87.6976°W)
Time: 20:43:44
(UTC+00:00)

Vanguard 3 - Pass Details

Date: 12 May 2026
Orbit: 507 x 3205 km, 33.4° (Epoch: 31 May)

Event Time Altitude Azimuth Distance (km) Brightness Sun altitude
Rises 20:28:11 0° 240° (WSW) 6,907 12.6 48.4°
Reaches altitude 10° 20:32:45 10° 236° (SW) 6,031 12.5 47.7°
Maximum altitude 20:51:33 57° 165° (SSE) 3,406 10.9 44.4°
Drops below altitude 10° 21:06:37 10° 93° (E) 4,953 10.8 41.7°
Sets 21:09:55 0° 89° (E) 5,657 11.0 41.1°
